Weather History for KEDW - October, 2012

Change the Weather History Date:

Sunday, October 14, 2012

  Actual Average Record
Temperature  
Mean Temperature 64 °F -  
Max Temperature 84 °F 79 °F 93 °F (2011)
Min Temperature 44 °F 44 °F 38 °F (2008)
Degree Days  
Heating Degree Days 2    
Growing Degree Days 14 (Base 50)    
Moisture  
Dew Point 37 °F    
Average Humidity 43    
Maximum Humidity 68    
Minimum Humidity 19    
Precipitation  
Precipitation 0.00 in - - ()
Sea Level Pressure  
Sea Level Pressure 30.11 in    
Wind  
Wind Speed 4 mph (East)    
Max Wind Speed 12 mph    
Max Gust Speed -    
Visibility 10 miles    
Events      
Averages and records for this station are not official NWS values.
T = Trace of Precipitation, MM = Missing Value Source: NWS Daily Summary

Daily Weather History Graph

Daily Weather History Graph

Search for Another Location

Airport or City:

Trip Planner

Search our weather history database for the weather conditions in past years. The results will help you decide how hot, cold, wet, or windy it might be!

Date:

Astronomy

Oct. 14, 2012 Rise Set
Actual Time 6:57 AM PDT 6:17 PM PDT
Civil Twilight 6:31 AM PDT 6:42 PM PDT
Nautical Twilight 6:02 AM PDT 7:11 PM PDT
Astronomical Twilight 5:32 AM PDT 7:41 PM PDT
Moon 6:02 AM PDT (10/14) 5:40 PM PDT (10/14)
Length of Visible Light 12h 11m
Length of Day
11h 20m
Waning Crescent, 1% of the Moon is Illuminated
Oct 14
Waning Crescent
Oct 15
New
Oct 21
First Quarter
Oct 29
Full
Nov 6
Last Quarter

Hourly Weather History & Observations

Time (PDT) Temp. Windchill Dew Point Humidity Pressure Visibility Wind Dir Wind Speed Gust Speed Precip Events Conditions
12:55 AM 52.3 °F - 41.5 °F 67% 30.13 in 10.0 mi SW 4.6 mph - N/A   Clear
1:55 AM 50.0 °F - 39.6 °F 67% 30.15 in 10.0 mi SW 4.6 mph - N/A   Clear
2:55 AM 48.7 °F - 38.7 °F 68% 30.14 in 10.0 mi Calm Calm - N/A   Clear
3:55 AM 47.5 °F - 34.9 °F 62% 30.14 in 10.0 mi South 3.5 mph - N/A   Clear
4:55 AM 48.4 °F - 37.8 °F 67% 30.14 in 10.0 mi WNW 5.8 mph - N/A   Clear
5:55 AM 45.3 °F 43.0 °F 34.0 °F 65% 30.17 in 10.0 mi SE 4.6 mph - N/A   Clear
6:55 AM 44.8 °F 43.3 °F 34.3 °F 67% 30.18 in 10.0 mi West 3.5 mph - N/A   Clear
7:55 AM 48.4 °F - 34.0 °F 58% 30.20 in 10.0 mi Calm Calm - N/A   Clear
8:55 AM 51.8 °F - 35.2 °F 53% 30.21 in 50.0 mi Calm Calm - N/A   Clear
9:55 AM 57.7 °F - 39.9 °F 51% 30.20 in 60.0 mi Calm Calm - N/A   Clear
10:55 AM 65.1 °F - 41.5 °F 42% 30.18 in 60.0 mi NE 3.5 mph - N/A   Clear
11:55 AM 72.3 °F - 42.1 °F 34% 30.15 in 70.0 mi NNE 4.6 mph - N/A   Clear
12:55 PM 78.8 °F - 40.3 °F 25% 30.11 in 80.0 mi NNE 5.8 mph - N/A   Clear
1:55 PM 82.9 °F - 38.5 °F 21% 30.07 in 80.0 mi ENE 11.5 mph - N/A   Clear
2:55 PM 83.7 °F - 38.5 °F 20% 30.05 in 90.0 mi ENE 8.1 mph - N/A   Clear
3:55 PM 83.7 °F - 38.7 °F 20% 30.03 in 90.0 mi Variable 3.5 mph - N/A   Clear
4:55 PM 83.7 °F - 37.8 °F 19% 30.02 in 10.0 mi ENE 5.8 mph - N/A   Clear
5:55 PM 81.9 °F - 37.6 °F 21% 30.01 in 10.0 mi East 4.6 mph - N/A   Clear
6:55 PM 73.9 °F - 35.4 °F 25% 30.03 in 10.0 mi ESE 3.5 mph - N/A   Clear
7:55 PM 68.9 °F - 35.4 °F 29% 30.04 in 10.0 mi ESE 5.8 mph - N/A   Clear
8:55 PM 66.9 °F - 37.9 °F 34% 30.05 in 10.0 mi ENE 3.5 mph - N/A   Clear
9:55 PM 63.1 °F - 35.6 °F 36% 30.06 in 10.0 mi West 3.5 mph - N/A   Clear
10:55 PM 57.0 °F - 33.1 °F 40% 30.06 in 10.0 mi SSW 4.6 mph - N/A   Clear
11:55 PM 58.3 °F - 36.1 °F 44% 30.05 in 10.0 mi WSW 4.6 mph - N/A   Clear